GFSNIL_925_spd_000.txt.gz
Wind_Speed
33 33 28 23 18 14 10 9 7 6 5 5 5 6 8 10 11 11 11 11 11 10
29 27 25 19 14 12 10 9 6 4 4 4 5 7 9 11 12 12 12 13 13 13
25 23 21 18 15 12 10 7 4 3 4 4 6 8 10 11 11 13 15 15 16 16
24 22 20 17 15 11 8 5 4 3 3 6 8 9 11 11 13 16 17 17 18 19
24 22 19 16 13 10 7 4 3 3 5 7 9 11 12 13 15 17 19 20 19 21
23 20 18 15 12 8 6 4 3 4 7 10 11 12 13 14 16 17 18 18 19 20
21 18 16 13 10 7 5 3 4 6 8 10 12 14 14 15 15 16 17 20 20 21
19 17 15 12 9 6 4 4 6 7 9 12 15 16 13 14 16 17 19 20 19 19
19 16 13 10 8 6 5 5 7 9 13 16 16 15 13 15 18 16 21 21 22 22
17 15 11 9 7 5 5 6 9 12 14 16 16 14 15 16 19 19 20 22 25 27
15 13 10 8 6 4 6 9 12 15 16 17 17 15 17 18 19 19 21 24 26 26
13 12 9 7 4 5 8 10 13 15 17 17 16 17 18 19 20 21 24 25 22 22
12 10 8 5 5 7 9 12 14 16 16 15 17 20 19 19 20 22 24 20 20 18
11 9 6 5 5 8 11 14 15 16 17 17 20 20 19 18 21 23 22 20 20 22

GFSNIL_925_spd_003.txt.gz
Wind_Speed
30 37 38 35 29 23 20 17 13 9 6 5 4 5 5 6 6 6 5 6 8 8
33 37 36 30 24 21 18 16 12 7 5 4 4 5 6 6 6 6 8 9 10 10
32 35 32 27 23 20 17 14 10 7 4 3 3 5 6 6 6 9 10 9 11 11
32 32 29 25 21 18 16 12 9 6 4 3 4 5 6 7 8 9 11 11 11 13
33 31 28 24 20 17 14 11 8 5 3 3 4 5 6 8 9 11 11 13 14 14
32 30 27 23 19 16 13 10 7 4 3 4 5 6 7 9 10 10 12 14 14 14
30 28 25 21 18 15 12 9 6 4 4 5 7 9 9 9 11 13 14 16 16 14
27 25 23 20 17 14 10 8 5 3 4 7 9 10 9 10 12 15 16 17 16 15
27 24 21 19 16 12 9 6 3 4 7 10 11 11 9 11 12 15 14 16 16 20
25 23 20 17 14 11 7 4 4 6 9 11 12 10 12 13 14 14 16 17 20 20
24 22 19 15 11 8 4 3 6 8 10 12 12 11 13 14 14 15 16 20 21 20
22 21 16 12 8 5 3 5 7 9 11 13 13 13 14 15 15 15 17 20 19 19
19 17 13 10 6 4 4 6 9 10 11 11 13 15 15 15 15 16 19 19 17 17
16 14 11 8 5 4 5 8 9 12 13 13 15 15 15 16 16 18 20 19 20 21

GFSNIL_925_spd_006.txt.gz
Wind_Speed
32 32 34 29 25 20 18 15 14 12 9 8 6 5 3 2 1 2 3 5 6 8
30 28 27 24 22 20 17 16 14 12 9 7 5 4 2 1 2 2 4 6 8 9
26 24 28 25 22 19 17 16 14 11 9 7 4 3 2 2 2 3 5 7 9 11
27 27 27 23 21 19 17 15 13 11 8 5 3 2 2 2 3 5 7 8 10 12
27 26 24 21 19 17 16 13 12 9 7 4 3 2 2 4 5 6 8 10 11 13
27 25 22 21 19 16 15 12 10 8 5 3 2 2 4 5 7 8 10 11 13 14
25 23 21 19 18 16 13 11 8 6 4 1 2 3 4 7 8 10 12 13 14 15
23 22 21 19 17 14 11 9 7 5 2 1 3 4 6 8 11 12 14 15 15 15
24 21 19 18 16 13 10 7 5 2 0 3 4 7 6 9 12 14 15 16 17 17
22 21 18 16 14 11 8 5 3 0 2 4 5 7 8 11 13 14 15 16 17 19
21 20 17 15 12 9 6 3 1 2 4 5 6 8 10 12 13 13 14 16 18 19
19 18 15 13 10 6 3 1 1 3 5 7 7 8 11 13 14 14 15 16 18 18
17 15 13 11 7 4 1 1 3 5 5 7 8 10 12 13 13 15 17 19 19 17
15 14 11 9 6 3 1 2 4 6 7 7 9 11 12 13 14 15 19 20 20 20

GFSNIL_925_spd_009.txt.gz
Wind_Speed
27 27 27 30 32 27 24 20 18 15 12 10 8 6 4 2 1 2 3 5 6 7
26 28 30 29 27 24 21 20 17 15 12 10 7 5 3 1 2 3 5 6 8 9
27 28 29 29 26 25 21 20 18 14 11 9 6 4 2 2 3 5 7 7 8 10
30 30 29 27 27 25 21 19 17 14 11 8 5 3 2 3 5 7 8 8 10 11
31 30 27 27 25 23 21 17 16 13 10 6 4 2 3 6 7 8 9 10 11 13
29 29 26 26 25 22 20 17 14 11 9 6 3 1 4 7 9 10 11 12 13 14
29 28 26 24 23 20 17 15 12 10 7 5 2 2 5 7 10 12 13 14 14 15
27 26 24 23 22 19 16 13 11 9 6 2 0 2 5 8 11 13 15 15 15 15
27 25 24 24 20 17 15 12 9 6 4 1 1 7 7 8 11 14 15 16 16 16
26 25 23 21 17 14 12 10 7 4 1 1 3 8 7 10 12 14 15 15 16 17
26 24 20 18 15 12 10 7 4 2 1 3 5 11 8 11 13 14 15 15 16 17
23 22 19 16 13 10 8 5 2 1 3 4 5 8 10 12 13 15 16 16 16 18
21 19 17 14 11 8 6 3 2 2 4 5 6 7 10 12 13 15 15 16 18 18
19 17 14 12 9 6 4 3 2 3 5 6 7 9 10 12 13 14 17 18 18 19

GFSNIL_925_spd_012.txt.gz
Wind_Speed
32 36 36 35 32 31 32 32 28 23 20 17 15 12 8 6 4 2 1 3 4 6
36 36 36 31 33 30 31 31 27 25 21 17 13 10 8 5 3 1 2 4 5 6
31 37 37 34 31 31 31 30 29 24 20 17 13 9 7 4 3 2 3 5 7 9
33 35 34 31 31 32 33 31 27 23 19 16 12 9 6 4 3 4 5 7 9 9
32 33 32 30 32 33 31 28 25 21 17 14 11 7 5 3 3 5 7 8 9 11
32 32 31 32 32 30 29 26 22 19 16 12 9 6 3 3 4 6 8 9 10 12
30 31 32 32 32 31 28 25 21 17 14 9 6 3 2 2 5 7 9 11 12 12
31 31 35 34 31 28 26 23 19 15 11 7 4 3 4 5 7 8 10 12 13 12
32 33 33 33 31 28 24 20 17 13 9 6 3 3 5 5 9 10 11 13 13 15
28 27 30 31 28 26 22 18 14 10 7 5 3 5 6 6 10 11 11 14 16 15
26 23 26 27 25 22 19 15 12 7 4 2 3 5 6 8 11 11 13 14 16 16
25 25 26 25 22 18 16 12 9 5 2 1 1 5 7 9 12 12 13 14 14 15
24 27 26 22 19 16 13 10 6 3 1 2 4 2 6 8 12 13 14 15 16 16
25 25 21 19 15 12 11 8 5 2 2 3 3 5 7 9 12 12 16 17 19 17

GFSNIL_925_spd_015.txt.gz
Wind_Speed
39 38 36 36 35 36 35 36 37 33 28 24 21 16 14 12 9 7 6 4 3 3
37 36 36 34 35 34 34 36 37 32 28 23 18 16 14 11 9 6 5 3 2 3
36 36 36 37 34 32 35 34 36 32 27 22 20 15 12 10 8 5 4 3 5 5
35 34 35 36 33 32 33 36 35 30 26 24 19 15 11 8 6 4 2 4 6 6
31 33 33 31 30 33 35 34 31 30 26 21 17 14 11 8 6 4 4 5 7 8
33 33 30 33 32 33 35 34 30 27 24 20 17 13 9 7 5 3 4 5 7 9
28 30 33 33 33 35 35 34 31 27 23 18 15 11 7 5 4 3 4 6 6 8
28 29 31 33 36 36 34 32 29 26 21 16 12 8 6 3 1 4 6 7 8 8
30 29 28 29 31 32 31 28 25 20 19 14 10 6 2 1 3 5 7 9 9 11
33 33 30 28 25 24 24 23 21 16 14 12 8 4 2 3 5 7 8 9 11 12
33 33 33 30 28 23 20 17 17 13 11 9 8 4 2 4 7 8 8 9 11 10
31 28 28 30 24 22 18 14 13 10 9 8 6 3 4 7 9 10 9 9 11 13
25 20 21 26 24 20 16 13 11 9 7 6 5 3 3 4 8 11 10 11 14 14
26 27 25 23 19 17 15 13 10 10 7 5 3 1 3 5 8 10 12 14 17 15

GFSNIL_925_spd_018.txt.gz
Wind_Speed
40 44 43 43 42 40 37 36 39 37 36 33 28 24 20 15 13 10 8 7 5 4
37 35 40 41 41 36 33 36 37 38 36 32 29 25 20 16 11 8 9 7 5 4
39 40 38 36 38 37 36 36 39 37 35 31 28 25 21 16 14 12 9 7 6 5
37 38 37 36 34 37 37 36 38 38 35 32 27 23 18 14 14 12 8 6 7 7
37 36 35 35 35 37 34 36 39 38 35 29 26 19 19 18 16 10 8 6 7 6
35 34 32 34 33 33 35 36 37 37 34 28 21 22 20 17 11 9 7 6 7 7
28 30 31 33 34 33 34 35 34 31 28 24 20 15 14 12 10 7 6 6 6 8
27 28 28 30 29 28 27 27 28 26 22 21 18 15 11 9 7 6 6 5 7 7
29 30 31 32 32 32 31 28 28 24 21 15 11 10 7 6 5 4 3 4 5 7
32 31 31 33 33 33 30 26 21 16 17 14 11 8 5 4 2 1 2 4 6 7
33 32 34 34 32 30 27 26 23 17 12 10 9 8 5 2 1 2 3 4 4 7
36 35 34 31 28 26 26 18 17 15 13 12 9 6 3 2 3 6 5 4 6 9
29 30 30 28 24 21 19 14 14 13 10 8 7 5 2 4 5 8 8 9 11 12
29 28 27 24 20 19 18 16 13 11 9 6 5 3 3 5 8 7 9 14 16 15

GFSNIL_925_spd_021.txt.gz
Wind_Speed
32 34 37 39 40 43 46 45 44 41 40 39 35 31 27 23 20 18 15 12 9 7
29 31 34 36 39 38 40 42 43 43 40 36 35 33 27 25 21 18 15 13 10 9
27 31 33 33 34 37 39 35 38 40 37 35 34 31 30 24 20 18 15 13 11 8
28 31 33 33 34 35 35 37 35 37 36 38 36 32 27 23 19 14 11 10 8 9
26 29 31 31 31 33 35 35 37 37 36 35 33 29 25 20 17 11 10 8 9 12
27 29 29 29 30 31 31 32 33 33 32 32 30 25 19 14 11 15 11 10 9 12
25 26 25 26 25 27 26 26 28 28 30 30 26 20 16 13 10 10 8 8 9 11
19 21 22 24 24 25 28 29 30 32 29 25 21 17 14 10 10 7 4 7 9 10
22 25 27 27 29 29 30 32 31 33 29 24 19 16 12 9 4 4 6 8 8 10
23 26 28 28 30 28 30 31 30 27 24 19 15 11 8 6 4 5 7 8 7 8
25 25 28 33 32 33 34 32 28 24 19 17 16 11 6 4 4 2 3 6 6 7
25 24 25 29 29 29 31 28 25 21 18 10 8 9 8 3 1 5 5 3 6 8
22 24 26 28 29 26 25 22 16 14 10 9 9 5 3 3 5 5 6 7 9 12
25 27 28 27 24 21 20 19 15 15 11 8 8 5 0 3 5 5 7 10 14 14

GFSNIL_925_spd_024.txt.gz
Wind_Speed
22 28 34 35 32 38 41 46 46 45 44 44 43 39 34 32 29 26 22 21 16 14
17 18 26 30 32 35 36 36 41 43 42 41 39 37 35 32 28 25 22 13 14 9
13 18 22 24 28 32 32 34 36 38 41 39 36 36 35 31 27 25 22 20 12 13
17 18 20 25 27 28 29 30 31 34 35 36 36 34 33 32 27 23 21 19 13 11
21 21 20 24 26 25 25 26 28 29 30 32 33 34 32 29 26 21 17 14 13 9
20 21 21 20 21 20 22 22 24 26 28 31 33 34 31 28 22 17 12 8 7 6
12 15 16 17 19 21 21 23 23 24 25 24 25 32 30 24 17 13 9 6 4 5
4 7 12 17 19 21 23 24 26 27 25 25 27 15 22 19 16 11 7 2 4 6
16 17 19 21 23 25 27 26 25 25 29 29 26 18 16 14 13 10 5 2 7 10
22 24 23 23 23 25 25 27 29 30 29 27 25 19 15 11 9 4 3 4 6 4
21 24 23 24 25 26 27 28 30 29 27 27 23 18 11 7 11 6 2 4 3 3
17 21 23 27 24 28 30 26 26 25 22 23 16 11 11 11 9 8 2 2 4 6
22 25 26 27 24 24 25 25 23 20 17 15 14 9 6 8 5 2 2 5 7 9
22 25 25 25 23 22 23 21 19 17 15 13 11 9 6 4 4 6 4 7 10 11

GFSNIL_925_spd_027.txt.gz
Wind_Speed
21 20 20 22 27 32 34 35 33 42 44 44 44 46 47 44 39 37 33 25 24 21
9 15 19 21 24 28 31 31 31 34 38 39 42 43 43 40 39 36 31 26 24 21
10 11 14 14 17 21 25 26 27 27 31 33 32 35 36 34 36 33 29 27 25 19
15 14 15 18 17 18 19 21 23 23 25 27 25 27 31 32 31 31 28 25 22 16
19 17 17 18 18 16 16 17 19 21 21 21 23 26 28 30 30 31 28 22 15 13
15 16 16 14 13 12 14 15 16 18 19 20 21 22 21 23 24 23 21 18 12 8
12 9 11 11 9 9 12 14 15 17 19 21 24 25 26 27 25 20 17 13 13 11
5 5 3 6 10 12 14 16 19 22 23 24 25 25 29 30 26 21 18 13 8 8
9 12 12 15 16 17 18 19 20 22 25 26 29 29 26 24 22 18 16 12 6 4
13 15 14 15 17 19 20 21 22 23 25 26 24 22 21 20 19 14 10 7 3 4
14 16 15 18 22 23 24 24 25 27 27 26 24 19 19 19 17 14 10 7 6 2
16 16 17 21 22 23 27 27 27 28 26 25 21 17 17 17 16 13 10 7 5 2
18 20 22 23 24 25 28 27 26 25 21 20 19 13 15 14 12 9 7 5 1 2
20 22 22 23 24 25 25 24 22 21 18 18 13 9 7 9 7 6 5 1 2 3

GFSNIL_925_spd_030.txt.gz
Wind_Speed
11 17 20 22 21 22 20 20 20 23 29 32 29 28 27 29 33 40 42 40 38 35
9 10 13 15 16 19 21 24 21 19 21 25 26 25 26 26 27 27 29 31 36 31
11 10 9 12 13 14 14 16 16 17 18 20 23 23 23 21 21 23 22 20 24 25
13 13 13 12 12 11 11 12 12 13 14 16 18 22 24 21 18 20 22 21 20 11
14 13 12 12 11 10 8 8 10 10 12 13 15 17 20 23 23 20 18 14 18 22
12 12 11 10 8 7 6 6 7 7 7 9 11 14 15 16 20 23 23 23 21 18
11 11 8 5 3 3 1 3 4 4 6 7 9 13 18 20 21 23 25 22 19 16
12 11 8 5 8 3 6 7 8 9 10 11 11 14 18 22 26 27 24 20 17 14
13 11 12 14 10 9 10 11 11 12 13 13 13 14 17 24 26 24 23 21 16 13
11 13 12 12 12 13 14 15 17 18 20 22 21 18 18 20 20 19 16 14 11 8
11 13 14 16 18 18 18 19 22 25 24 23 19 18 18 18 17 15 13 9 8 7
11 13 16 18 18 19 21 23 26 25 24 23 19 17 15 15 13 13 10 7 6 4
16 18 19 20 22 23 25 25 25 23 21 16 17 13 15 12 10 8 6 5 2 1
19 19 19 20 21 22 23 22 21 19 15 13 9 7 7 7 5 4 3 2 0 1

GFSNIL_925_spd_033.txt.gz
Wind_Speed
11 11 13 17 18 18 19 20 20 24 25 28 32 32 29 29 28 27 30 30 25 25
12 11 11 13 14 14 15 15 18 21 22 23 26 29 31 31 27 25 24 24 22 20
12 12 11 11 12 12 12 11 12 16 19 19 19 22 25 26 25 23 21 22 22 21
13 12 12 11 11 11 10 9 9 10 12 12 13 14 17 18 19 19 21 20 23 21
13 13 12 11 10 8 8 7 6 7 8 7 8 13 12 13 14 19 17 18 18 18
12 13 13 12 10 7 5 5 3 3 2 6 5 7 8 10 11 13 15 16 18 18
13 13 12 10 9 8 7 5 3 5 4 2 3 6 8 8 9 8 11 13 16 18
12 11 12 12 11 10 9 9 8 8 6 4 5 6 8 9 11 14 16 16 15 14
11 12 13 11 11 12 13 16 14 11 9 9 10 7 8 10 15 18 18 17 14 14
11 14 14 12 15 18 19 18 19 19 18 18 16 14 15 15 18 18 16 14 10 8
11 12 12 14 16 17 18 20 22 23 25 24 19 17 16 15 16 16 13 10 8 6
11 13 15 18 18 19 20 20 21 19 18 18 18 16 14 14 15 12 10 7 7 6
14 15 17 18 20 21 22 21 18 18 16 14 14 13 13 13 12 8 6 4 2 2
14 15 16 17 16 17 16 16 15 14 12 10 9 9 9 8 5 3 2 1 1 1

GFSNIL_925_spd_036.txt.gz
Wind_Speed
12 13 13 11 14 16 16 16 15 17 19 23 23 25 29 33 32 30 35 35 29 30
14 13 13 13 14 13 8 6 8 11 11 16 19 20 21 26 30 31 33 34 31 26
15 14 13 12 12 13 12 8 6 10 11 14 14 13 16 19 21 24 24 24 25 27
16 14 12 12 11 8 7 5 7 8 6 7 9 10 12 13 13 11 14 17 20 23
14 13 13 15 16 12 11 8 6 6 6 6 7 7 7 10 9 9 11 12 13 14
13 14 12 11 10 10 8 7 5 3 4 4 4 5 5 5 5 5 8 10 11 12
12 11 10 9 9 9 8 8 6 6 5 5 3 1 2 3 1 1 4 6 8 10
10 9 9 10 11 11 13 12 10 10 10 10 10 9 8 5 5 5 7 7 8 8
8 10 12 13 15 17 16 16 16 17 17 18 16 13 9 6 9 10 11 13 11 11
8 10 13 14 17 17 17 17 21 21 21 20 16 14 13 10 12 13 12 11 10 9
9 12 14 16 17 16 17 19 19 18 19 19 16 14 12 11 13 12 10 8 7 6
11 14 16 18 17 18 19 18 18 17 18 18 15 13 11 10 10 9 8 7 7 7
13 15 17 17 17 16 16 17 16 16 15 12 13 12 12 12 11 9 7 5 5 5
13 13 13 12 12 13 14 16 15 13 13 11 10 9 9 7 6 5 5 5 4 2

GFSNIL_925_spd_039.txt.gz
Wind_Speed
10 12 10 11 12 12 13 11 7 9 16 16 19 17 19 20 22 23 26 31 31 32
11 13 13 12 11 12 10 6 5 6 7 10 11 13 15 15 16 18 20 25 28 32
12 11 10 9 9 10 8 5 1 3 6 7 9 10 13 12 13 13 13 17 20 24
10 9 9 9 12 10 7 6 4 5 6 4 6 7 8 10 10 12 11 12 14 15
9 9 9 11 11 11 10 6 6 5 2 3 3 4 6 8 8 6 6 8 11 11
11 11 10 10 9 7 5 7 6 5 5 5 5 4 4 7 5 4 4 5 6 5
10 10 8 7 7 9 8 7 8 9 8 8 7 5 3 1 1 2 3 2 4 4
8 7 8 10 10 10 10 12 11 11 13 12 10 9 6 5 6 7 8 9 9 8
7 9 10 11 10 11 13 14 16 18 17 16 15 12 9 8 11 11 13 14 12 11
7 9 10 10 12 15 16 17 19 19 18 18 16 14 12 11 13 13 12 10 8 7
9 10 11 12 14 15 16 17 18 18 18 18 16 14 12 11 11 10 9 7 7 7
10 13 14 15 15 14 14 15 16 15 14 15 15 12 12 9 8 8 9 9 8 6
13 14 15 14 13 13 13 13 13 14 14 12 13 9 9 10 9 8 6 6 5 5
13 14 12 12 11 12 13 12 10 9 9 10 10 10 9 7 6 5 4 3 3 3

GFSNIL_925_spd_042.txt.gz
Wind_Speed
7 7 6 7 7 8 9 8 6 7 8 7 8 10 15 15 14 14 15 18 20 26
6 7 7 6 5 6 6 6 4 2 4 7 9 10 10 9 11 13 14 15 16 20
7 7 6 6 6 5 5 5 2 0 3 5 5 4 5 5 7 8 9 9 11 14
6 5 5 5 7 8 5 4 4 4 4 4 3 4 4 5 6 7 7 7 8 8
5 5 5 5 6 6 7 6 4 3 3 4 4 4 4 5 6 7 7 7 7 7
5 5 6 6 6 6 4 3 4 4 5 6 7 6 5 6 4 4 5 6 7 6
5 5 6 6 6 7 7 7 8 8 8 8 8 6 5 3 4 4 4 5 4 4
5 5 6 8 9 10 11 11 11 12 13 12 11 10 7 7 8 9 10 11 11 11
5 6 9 9 10 10 11 13 14 16 15 15 15 13 11 11 12 11 11 11 11 10
6 7 8 10 12 14 14 13 16 16 16 17 16 14 13 11 11 10 10 9 9 8
6 7 9 11 12 13 14 15 15 15 14 15 13 11 10 9 8 8 9 9 9 8
7 9 11 12 11 12 15 15 15 13 13 12 11 10 9 8 7 8 8 8 9 7
10 12 12 12 12 13 13 12 12 13 12 10 10 7 7 7 6 6 6 5 4 5
12 13 13 12 10 10 10 9 9 9 8 7 7 6 6 7 8 6 5 4 4 4

GFSNIL_925_spd_045.txt.gz
Wind_Speed
6 6 5 7 7 8 8 9 8 5 3 2 2 4 6 8 6 8 9 10 13 16
5 5 5 4 4 4 4 5 5 4 3 3 4 4 4 3 3 3 3 5 8 9
4 3 3 3 3 2 2 2 1 1 2 3 4 4 3 2 2 2 4 5 5 4
3 3 2 2 2 3 3 3 2 2 3 3 3 3 3 3 4 5 6 7 6 7
2 1 1 1 2 2 3 4 3 2 2 3 3 4 3 4 4 4 4 3 5 6
1 1 2 3 3 3 3 3 4 4 6 6 6 6 6 5 4 5 4 3 3 3
2 3 4 4 5 5 6 7 8 9 9 9 9 8 7 6 7 8 8 8 8 7
2 3 6 6 8 9 10 10 11 12 13 13 13 12 9 9 11 12 13 12 13 13
4 5 7 7 8 8 10 11 13 16 16 18 17 14 13 12 14 12 11 10 9 7
5 7 8 9 11 11 12 14 15 16 17 17 15 13 13 12 12 11 10 9 8 7
6 7 8 9 12 12 12 13 13 13 12 12 12 10 9 9 10 10 9 9 8 8
7 9 10 11 11 12 13 12 11 10 8 10 11 9 9 9 9 8 7 7 7 8
9 10 10 9 10 11 11 11 10 9 9 9 9 7 8 8 7 5 5 4 3 4
10 11 9 10 10 9 9 11 10 9 6 4 4 6 6 7 8 7 6 6 7 6

GFSNIL_925_spd_048.txt.gz
Wind_Speed
2 3 4 5 6 7 8 9 9 7 4 3 3 2 2 5 6 6 5 3 4 7
3 2 3 3 3 4 4 5 5 4 3 2 2 2 3 4 4 4 4 5 5 5
4 4 3 3 3 3 3 3 3 2 1 1 2 2 1 2 3 5 4 3 3 1
5 5 4 3 3 3 3 3 3 2 2 1 2 3 3 4 5 6 5 4 2 2
4 4 3 2 2 2 3 3 3 2 1 2 3 4 4 5 6 6 5 4 3 3
2 1 1 1 1 2 3 1 2 3 5 6 6 6 6 6 7 8 8 8 8 7
1 1 1 1 2 3 4 5 7 9 9 9 9 8 8 8 9 10 11 12 13 14
3 3 3 4 5 7 8 8 10 11 11 12 13 10 9 12 13 14 15 14 14 15
5 5 6 6 8 7 8 10 12 13 14 17 16 12 13 13 13 12 11 11 9 8
6 7 9 8 8 10 10 10 13 15 15 16 13 11 11 11 11 11 11 10 9 10
8 9 10 10 9 11 9 10 11 12 12 12 11 10 9 9 9 9 9 9 10 10
9 10 10 11 11 10 9 9 9 9 9 10 11 8 9 7 6 7 7 8 9 9
11 11 11 11 11 11 10 9 7 7 7 8 10 7 5 7 6 6 6 5 4 2
11 12 11 11 13 12 10 11 9 6 5 3 3 5 4 6 7 5 5 5 5 5

GFSNIL_925_spd_051.txt.gz
Wind_Speed
2 3 5 6 7 7 8 9 9 8 6 5 4 3 3 4 7 9 9 8 9 8
2 3 4 4 5 5 6 6 6 5 4 4 3 2 3 4 4 5 4 3 4 6
3 4 5 4 4 4 4 3 3 3 2 2 1 1 1 2 3 3 3 4 3 4
5 5 6 5 5 4 3 3 2 2 1 1 0 1 2 4 5 6 5 5 4 5
5 5 5 4 4 3 3 3 2 1 1 1 2 4 4 5 7 7 7 5 5 3
5 4 4 4 3 2 1 3 1 3 4 5 5 6 7 8 8 8 8 8 6 6
4 4 4 4 3 4 4 5 6 8 9 8 8 8 9 10 10 11 10 11 10 10
4 5 6 5 5 7 8 8 7 9 11 10 8 10 11 12 13 13 12 12 13 13
6 6 7 8 8 8 9 11 10 12 13 13 12 13 12 12 12 11 10 9 9 8
8 7 8 10 10 10 10 12 13 14 14 13 12 12 12 11 11 12 10 9 8 8
9 9 10 11 11 12 13 12 13 13 12 13 11 10 9 8 8 9 8 8 7 7
11 12 13 12 13 13 13 13 12 12 11 11 11 7 8 6 6 5 6 5 5 5
14 14 14 14 15 14 14 12 11 11 9 9 10 8 6 5 4 3 3 2 3 3
14 14 14 16 15 16 14 12 11 11 10 9 7 8 4 2 2 2 1 1 1 1

GFSNIL_925_spd_054.txt.gz
Wind_Speed
3 2 2 3 4 5 6 6 7 7 6 7 6 5 6 8 9 9 10 12 11 9
3 3 3 5 5 5 6 6 6 5 5 5 5 6 4 4 2 3 5 5 4 3
4 5 5 5 4 5 6 6 5 4 4 4 4 4 3 2 4 5 4 3 2 2
4 5 5 5 5 5 5 5 4 5 4 4 3 2 2 3 4 3 3 4 3 3
5 5 6 6 5 5 4 5 5 4 4 3 3 3 3 3 4 4 4 4 4 2
6 6 6 5 4 3 2 2 4 3 2 2 3 4 4 5 5 5 5 4 5 4
6 6 5 4 3 2 3 3 3 2 2 3 4 5 6 7 6 6 7 7 7 6
6 6 5 4 4 4 4 4 4 4 3 4 3 5 7 9 8 8 9 9 10 8
7 6 6 6 6 5 5 5 6 5 6 6 6 8 8 8 9 8 7 9 8 8
8 8 8 8 9 8 8 8 8 7 8 8 8 8 9 9 9 9 8 7 5 3
9 9 9 10 10 9 10 9 9 8 8 9 8 9 8 8 9 8 6 6 4 2
12 11 12 12 12 12 13 12 11 9 9 10 9 8 7 6 7 6 5 4 3 2
14 14 14 14 14 14 13 12 11 11 10 8 8 6 5 5 4 4 4 3 4 3
16 16 16 15 15 14 13 12 11 10 10 8 6 5 5 3 3 3 4 4 4 3

GFSNIL_925_spd_057.txt.gz
Wind_Speed
6 4 3 4 4 4 5 6 6 7 8 8 8 8 9 10 12 10 11 13 13 13
4 3 2 3 4 4 5 6 7 7 7 7 6 6 5 7 7 5 3 4 6 6
3 2 3 4 4 5 6 6 6 6 6 6 5 4 4 3 4 6 4 3 1 2
3 2 3 5 5 6 6 6 6 6 6 5 4 3 3 3 3 3 2 3 3 3
4 4 5 6 6 6 7 6 5 6 6 5 5 3 3 4 3 3 3 3 4 3
4 5 6 6 6 6 6 5 4 4 5 5 4 2 2 3 3 4 4 4 3 3
6 6 6 6 6 5 5 4 3 2 2 2 2 3 3 4 5 5 6 6 6 6
6 6 5 4 5 5 4 4 4 3 3 2 1 2 5 6 6 6 6 7 8 7
6 6 7 7 6 4 5 4 4 3 3 3 2 4 6 6 7 7 7 9 9 9
8 8 8 7 7 7 6 5 6 5 5 4 4 5 6 8 7 8 6 6 6 5
10 10 10 10 9 8 7 7 8 8 6 5 5 6 6 5 7 8 6 6 5 4
13 12 11 11 10 9 10 11 10 8 8 8 6 6 6 4 4 5 5 4 3 3
12 13 13 13 13 12 12 10 9 8 8 7 6 5 5 6 4 4 3 2 2 3
13 13 14 14 14 14 13 11 9 9 8 7 6 5 6 6 4 2 3 3 3 3

GFSNIL_925_spd_060.txt.gz
Wind_Speed
9 8 10 9 6 5 5 8 10 11 9 9 10 10 10 10 11 13 13 14 14 15
10 9 7 3 4 6 7 9 9 8 8 8 9 8 6 8 10 9 7 6 6 7
9 6 4 5 6 7 7 9 8 6 7 8 8 7 6 7 6 6 5 4 4 4
12 8 8 6 6 8 9 9 8 6 7 6 7 6 5 5 5 5 6 6 4 4
13 10 8 6 6 9 10 7 8 7 6 6 7 7 5 7 6 5 4 4 4 5
8 6 6 5 8 9 8 7 5 4 4 6 6 5 6 6 7 8 9 8 7 6
10 9 6 6 7 7 8 7 7 6 5 7 9 8 8 7 8 9 9 9 8 7
9 8 9 9 10 10 10 8 7 5 5 6 6 6 5 6 7 7 7 7 7 6
11 10 10 10 10 9 8 6 4 4 4 4 4 4 6 7 8 7 9 10 11 10
14 14 11 10 8 8 6 5 4 5 4 4 4 5 7 7 9 9 9 9 9 7
15 14 12 12 11 9 7 7 6 6 7 5 4 6 8 8 9 10 10 9 7 5
19 16 15 15 13 11 10 9 10 9 8 7 7 6 6 7 7 7 7 7 7 6
18 16 16 14 13 12 11 11 11 11 8 9 8 7 7 6 6 6 5 5 4 7
16 15 16 15 16 15 14 13 13 11 10 11 10 8 7 7 6 5 6 5 5 4

GFSNIL_925_spd_063.txt.gz
Wind_Speed
15 11 10 14 14 12 12 10 9 8 9 9 10 11 11 11 11 11 11 14 15 17
17 15 14 11 8 9 9 8 9 10 9 9 10 11 10 11 9 10 11 11 11 11
21 17 15 10 9 11 11 9 7 8 7 9 10 10 10 9 9 9 9 7 6 5
21 21 16 13 12 12 9 6 8 7 7 9 10 9 10 11 11 9 9 7 7 7
11 11 11 13 11 8 6 7 8 6 8 8 10 10 11 12 12 11 12 11 10 9
15 12 10 8 8 8 7 7 8 6 6 8 10 11 10 9 13 12 12 12 11 10
14 11 9 9 9 8 8 7 7 7 8 8 10 10 10 7 10 11 11 10 10 10
15 13 11 11 11 10 9 8 7 7 7 9 9 10 11 11 10 9 8 7 6 7
17 16 14 13 12 11 9 8 7 6 7 7 7 7 7 9 10 10 9 9 8 9
19 17 15 13 11 9 8 7 7 7 7 7 5 5 6 8 10 10 10 10 12 11
21 18 15 13 10 9 9 9 9 9 10 8 6 7 8 8 9 10 11 12 10 8
21 19 17 15 14 13 12 12 12 12 11 8 7 8 9 10 10 11 10 9 9 9
22 21 20 17 17 16 16 15 14 14 12 10 9 10 9 9 10 11 10 9 8 7
22 21 18 16 18 17 17 16 15 14 13 12 12 12 11 10 10 10 10 10 10 11

GFSNIL_925_spd_066.txt.gz
Wind_Speed
19 21 20 19 16 15 13 13 11 9 10 11 7 14 12 14 14 13 13 14 14 16
18 21 21 18 15 14 12 13 13 12 13 12 12 13 13 14 14 14 13 14 14 16
17 18 18 20 17 15 16 16 15 13 12 12 12 13 13 13 12 10 13 13 14 13
15 15 16 15 15 19 16 14 13 10 11 12 12 12 12 12 11 11 14 14 13 11
15 14 13 11 11 11 11 11 10 7 11 13 13 12 12 12 12 13 14 13 12 12
14 14 14 13 12 11 11 11 9 8 10 12 11 9 10 10 11 12 14 14 13 12
19 18 16 13 13 13 12 10 9 10 10 10 9 8 8 8 10 11 12 11 11 10
18 16 15 14 14 13 12 11 10 9 9 9 9 9 10 9 9 10 9 9 8 7
18 17 16 15 15 14 13 11 10 10 9 8 8 8 8 8 10 11 10 9 6 5
21 20 18 16 16 14 12 11 10 8 8 8 7 6 5 7 8 10 9 8 9 9
24 23 20 19 16 14 12 11 9 8 8 8 7 6 6 7 7 8 7 9 9 9
27 25 22 21 18 14 10 11 10 10 10 10 8 6 8 8 8 8 9 10 10 9
28 26 25 22 19 15 12 12 12 12 13 11 9 7 8 9 9 11 11 11 10 9
25 26 24 20 18 14 14 15 15 15 15 14 12 11 11 10 10 11 12 12 12 10

GFSNIL_925_spd_069.txt.gz
Wind_Speed
18 22 23 25 25 18 21 19 18 16 15 14 14 13 13 14 14 13 12 13 14 15
13 12 14 16 17 19 23 19 16 17 17 15 13 11 11 12 13 13 13 13 13 13
10 11 12 14 17 18 17 16 16 15 13 10 10 10 12 13 13 13 12 11 12 12
9 9 11 13 13 16 15 14 14 10 9 10 11 12 14 13 12 13 14 14 14 13
12 12 12 13 13 12 12 11 10 9 10 12 12 12 13 12 11 13 15 16 13 12
14 13 13 13 13 13 13 12 10 9 10 11 11 12 11 10 10 12 13 15 14 13
16 16 15 14 13 12 11 11 10 10 10 10 10 10 9 10 10 10 11 12 12 11
16 16 15 15 14 13 12 10 9 9 10 10 10 10 10 11 10 10 10 8 8 7
19 18 18 17 15 14 13 11 11 10 10 10 10 9 9 9 10 10 9 8 7 6
20 21 20 17 16 16 14 13 12 11 10 10 9 8 8 7 7 9 9 9 8 7
24 23 21 19 19 18 16 14 12 11 10 9 8 7 5 7 6 7 8 8 8 8
26 26 24 24 22 19 16 13 11 12 11 11 10 7 7 7 7 7 9 9 9 9
23 26 26 26 23 20 17 13 10 14 12 13 12 9 9 8 10 11 11 10 10 10
19 24 26 24 22 20 17 14 14 15 15 15 14 12 10 10 11 12 12 13 12 10

GFSNIL_925_spd_072.txt.gz
Wind_Speed
9 10 12 15 16 22 20 18 15 10 10 12 12 15 12 10 9 9 10 12 13 14
10 10 8 7 11 17 18 17 15 17 17 15 14 10 8 8 8 9 11 12 13 13
7 8 8 7 7 10 15 17 20 19 14 13 9 7 7 7 8 10 11 10 11 12
7 6 5 5 8 11 13 14 16 14 11 9 7 7 7 7 8 10 11 11 12 12
8 7 7 7 8 8 9 10 10 10 9 7 6 6 6 6 8 10 11 11 11 12
11 10 10 9 9 10 12 12 12 10 8 6 6 6 6 6 8 9 9 9 11 13
14 13 12 10 11 11 11 10 10 9 7 6 6 6 6 7 8 9 9 9 10 11
15 15 15 14 14 13 13 12 11 9 7 6 7 7 7 8 8 9 9 9 8 8
17 17 17 17 16 15 14 13 11 9 8 8 8 8 8 9 8 8 8 8 7 6
19 21 20 18 17 17 17 15 13 11 10 9 9 9 9 8 8 8 8 9 8 7
18 21 22 21 22 20 18 17 15 12 11 10 9 8 7 6 8 8 9 8 9 9
16 19 24 25 24 22 20 18 16 13 12 11 9 9 8 10 9 8 8 9 10 9
17 17 23 28 26 24 22 19 15 12 11 12 11 11 11 11 9 10 10 10 10 9
18 16 18 24 25 25 21 18 17 14 14 15 11 14 13 13 10 12 12 13 12 12

GFSNIL_925_spd_075.txt.gz
Wind_Speed
1 1 3 7 12 18 23 24 20 20 15 10 8 10 10 9 10 11 10 9 9 10
6 3 2 4 6 11 16 18 20 20 16 16 15 17 13 12 9 9 9 8 9 10
6 4 2 3 4 6 10 14 21 21 20 18 14 14 12 10 9 8 8 9 9 9
7 5 3 3 3 7 9 14 17 16 15 14 14 13 11 10 9 8 9 9 10 11
8 7 5 3 4 6 8 11 13 15 15 14 12 12 10 10 9 8 9 8 9 11
9 7 7 7 6 7 10 11 13 14 14 13 12 11 10 8 8 8 6 6 8 10
16 12 9 8 9 10 11 12 13 14 15 14 12 10 9 8 7 6 6 7 8 9
21 18 14 11 12 13 14 15 15 15 14 12 12 11 10 9 7 7 6 6 7 9
23 19 17 16 15 16 16 16 16 15 13 13 11 11 11 9 6 6 7 8 7 7
23 22 19 18 18 20 20 20 19 19 18 16 14 12 10 9 8 7 6 5 6 6
27 26 21 17 22 22 21 21 20 19 16 14 12 11 10 8 7 7 6 7 9 9
24 24 21 19 22 22 21 21 21 18 16 14 11 10 9 11 10 10 9 9 9 10
23 21 21 18 19 23 23 23 19 18 15 13 13 12 13 14 12 11 10 10 11 12
24 22 19 16 15 19 23 20 20 19 17 16 16 14 15 17 16 14 13 15 15 15

GFSNIL_925_spd_078.txt.gz
Wind_Speed
4 8 13 18 20 21 23 26 28 29 25 23 22 20 19 18 14 13 9 11 15 11
2 3 5 8 9 12 16 18 20 24 24 24 22 21 21 20 18 15 14 18 14 12
4 3 3 4 6 9 10 15 18 24 25 23 21 19 18 15 14 15 17 15 14 12
7 5 5 5 5 7 8 12 17 23 23 21 20 19 17 16 16 15 14 13 12 11
7 6 6 7 6 6 7 9 15 21 20 20 19 18 18 17 15 15 13 12 12 13
11 10 8 7 6 7 6 8 10 17 20 20 20 18 17 14 13 12 11 10 9 10
13 12 11 10 9 8 8 9 11 12 13 16 16 15 14 14 13 12 11 9 10 10
13 13 12 12 13 12 12 11 13 11 14 15 15 16 17 16 13 11 11 10 10 11
14 14 14 12 12 12 15 14 15 16 15 16 15 17 17 14 14 14 12 11 11 9
15 15 14 13 11 13 15 15 18 17 17 15 15 18 18 17 12 12 12 11 8 8
17 17 17 15 12 13 14 16 17 17 16 15 15 18 18 17 12 11 10 12 13 13
20 21 20 18 16 12 14 15 18 16 15 18 17 19 19 16 13 13 13 13 13 15
17 18 19 18 16 14 14 17 18 23 20 21 18 19 20 21 18 14 12 11 12 15
16 16 16 17 14 13 14 15 15 19 23 21 18 18 22 19 22 16 13 11 12 15

GFSNIL_925_spd_081.txt.gz
Wind_Speed
3 6 15 17 19 20 20 23 25 27 31 28 24 22 25 27 23 20 18 19 19 19
6 4 1 2 7 16 19 24 26 27 27 28 27 27 29 26 23 21 20 19 19 18
7 5 4 3 5 6 9 13 15 19 22 27 26 28 27 24 20 19 19 19 21 19
7 7 6 5 6 7 7 8 13 16 22 25 28 26 21 19 18 18 18 19 18 16
9 8 7 7 8 8 8 8 11 14 20 24 23 19 19 20 20 20 18 18 17 15
10 9 8 8 8 8 8 7 8 11 16 20 19 20 19 20 19 19 18 17 16 16
10 12 14 14 12 9 8 8 7 8 11 15 16 15 15 17 16 15 15 13 12 13
13 11 10 11 13 12 10 10 10 10 10 12 15 16 17 17 16 15 14 13 13 15
15 17 18 16 14 11 11 12 11 12 13 14 16 18 19 15 14 14 13 12 12 11
14 15 14 15 16 15 13 12 13 14 14 15 16 18 18 20 16 15 15 15 12 11
12 14 15 15 15 16 15 15 15 15 16 17 17 19 18 20 19 13 13 14 13 12
13 14 15 17 17 17 16 16 16 17 17 17 19 20 19 19 18 16 15 13 11 12
14 14 14 15 16 16 15 16 17 19 23 20 20 19 19 22 20 18 16 11 12 15
17 18 16 17 16 15 14 15 17 18 20 24 20 20 20 22 20 20 16 14 17 17

GFSNIL_925_spd_084.txt.gz
Wind_Speed
1 4 28 24 21 30 27 25 23 23 19 15 25 18 13 21 24 23 16 21 19 24
9 8 5 1 1 6 12 16 19 24 25 27 25 24 24 26 25 22 22 21 22 21
13 10 7 6 4 4 7 9 13 15 18 21 22 26 26 27 24 21 22 20 19 18
13 12 11 9 8 8 8 8 11 13 14 18 20 24 24 25 25 21 20 17 17 17
13 12 11 10 10 9 10 11 13 12 14 16 20 22 22 23 21 21 21 20 18 18
15 15 14 13 12 11 9 12 11 13 13 15 17 18 20 21 21 22 21 20 20 20
15 15 15 15 15 14 12 13 12 10 13 13 15 17 18 17 19 19 19 17 17 16
13 13 13 14 15 15 14 13 14 13 12 13 12 15 16 16 15 16 16 17 18 17
10 11 14 16 17 16 15 14 13 14 15 15 16 15 16 17 18 18 18 18 17 17
11 12 12 13 15 17 17 16 16 15 14 17 17 18 18 19 19 18 18 17 17 16
14 14 15 15 16 15 15 16 17 16 16 17 19 19 20 19 21 19 19 19 19 17
16 18 19 18 17 17 16 15 16 17 17 18 19 20 21 21 21 22 19 19 18 18
15 15 17 15 16 17 17 17 16 18 18 19 20 18 22 23 23 24 23 22 18 16
17 16 15 15 16 15 16 18 20 21 24 21 21 20 21 23 25 28 27 25 24 22

GFSNIL_925_spd_087.txt.gz
Wind_Speed
6 1 13 23 21 20 23 25 22 21 21 22 24 23 18 25 23 19 22 24 24 24
11 9 7 3 4 9 16 20 19 19 24 26 24 23 25 26 19 20 24 24 24 23
13 12 9 6 5 3 2 3 6 6 7 9 13 17 19 22 21 26 25 27 27 28
15 13 12 11 10 11 10 9 9 10 11 12 12 16 17 21 25 25 23 27 25 25
14 14 14 13 14 13 13 12 12 11 12 12 12 15 19 20 22 24 25 25 23 22
16 16 17 18 18 16 14 12 12 12 13 13 13 14 16 19 22 24 25 23 23 21
15 17 17 16 16 17 16 15 14 13 13 13 14 14 14 16 18 19 20 19 21 20
16 17 17 17 16 15 15 15 15 14 13 13 13 12 13 14 16 15 16 14 18 18
17 18 18 19 20 20 19 18 16 14 14 15 13 13 13 14 15 16 17 18 17 17
15 17 17 18 19 19 20 20 20 19 18 16 16 15 15 14 15 17 19 19 20 21
15 16 17 17 17 17 16 19 19 20 18 18 18 17 16 18 18 19 19 20 20 22
15 16 16 16 16 17 18 18 19 19 21 19 19 17 18 17 20 20 21 20 21 22
12 15 16 17 17 18 17 18 18 20 19 21 22 20 17 17 20 22 21 23 23 23
16 16 16 17 16 18 17 19 17 19 20 18 18 20 19 17 19 24 25 24 25 25

GFSNIL_925_spd_090.txt.gz
Wind_Speed
11 8 5 6 3 8 12 12 15 17 20 21 23 23 21 21 22 27 24 23 24 27
16 11 9 9 9 8 7 6 4 8 17 18 21 23 23 23 24 23 24 21 25 23
16 16 15 11 10 12 12 11 8 7 8 7 8 12 19 24 27 27 27 27 26 30
18 17 15 13 12 11 9 8 9 8 8 8 9 11 15 17 21 24 27 29 31 30
17 16 17 16 16 13 11 9 9 8 8 8 8 9 12 16 19 22 24 26 27 24
20 19 18 17 18 16 16 14 11 10 10 9 8 10 10 13 18 20 21 23 25 25
17 18 19 18 17 17 17 16 16 15 12 10 11 12 11 12 14 16 18 20 21 24
17 17 17 19 20 20 19 18 17 17 16 15 14 13 14 14 13 14 17 17 17 19
20 20 20 20 19 20 20 20 20 19 19 18 17 15 14 14 16 14 15 15 16 16
21 22 24 23 23 21 21 20 20 18 18 19 18 18 17 16 16 17 17 17 17 18
15 16 19 21 22 23 23 23 23 21 20 19 18 17 18 18 18 17 18 18 19 21
14 18 20 21 22 21 21 22 22 21 21 22 24 20 19 17 17 18 19 19 19 20
14 17 18 20 22 22 22 24 23 23 20 21 21 19 16 17 18 18 19 22 21 21
17 18 18 20 20 22 23 23 25 25 23 22 20 21 16 16 17 18 17 19 22 23

GFSNIL_925_spd_093.txt.gz
Wind_Speed
18 17 16 17 19 12 3 4 6 7 11 16 19 18 21 21 21 22 24 24 25 27
19 17 17 15 14 12 10 11 6 8 12 18 21 22 23 26 30 27 28 28 30 29
19 19 17 15 15 14 13 10 6 3 2 5 9 13 20 25 28 27 28 29 27 28
20 19 17 17 16 15 12 11 9 7 6 7 10 11 11 10 12 18 22 22 23 26
18 19 20 20 19 18 16 14 12 11 8 7 8 8 10 12 15 17 20 21 23 26
20 20 20 20 20 20 19 18 16 13 11 11 11 12 11 11 14 17 20 20 22 24
17 16 17 17 18 17 17 18 19 18 16 13 10 8 9 12 14 15 17 19 20 21
18 18 18 19 18 17 17 17 16 16 16 16 17 16 15 13 14 15 17 18 18 18
17 18 20 20 20 21 20 19 20 21 19 17 17 16 17 18 16 14 15 17 17 17
17 18 20 21 21 22 22 22 21 21 20 20 21 19 19 18 20 20 17 16 16 17
16 18 20 21 21 22 21 21 22 23 22 22 21 22 21 21 20 20 21 21 19 19
14 18 22 23 24 24 24 25 24 24 23 23 22 22 22 19 19 19 21 21 20 20
14 17 20 20 20 21 22 24 25 26 25 23 22 21 20 18 18 19 18 19 21 20
17 18 18 19 20 21 22 24 25 26 25 25 26 24 20 16 17 17 19 18 18 20

GFSNIL_925_spd_096.txt.gz
Wind_Speed
21 20 19 18 18 22 20 14 10 4 8 4 2 5 9 15 18 24 20 18 19 21
25 23 21 20 19 19 16 15 14 9 3 4 9 10 15 18 21 24 26 26 23 23
22 20 20 20 21 19 17 16 13 12 10 10 6 7 6 14 24 23 23 23 25 26
20 20 20 21 20 19 17 17 16 14 12 11 9 10 13 13 12 10 19 19 20 22
21 22 23 23 22 21 21 19 18 15 14 14 13 12 12 14 14 15 15 13 14 17
21 22 23 23 22 22 22 21 21 21 20 18 17 15 14 14 14 15 16 16 16 16
18 18 19 19 19 20 20 21 21 21 20 18 17 16 17 17 18 18 17 17 18 19
13 14 16 17 18 18 18 19 19 20 20 20 18 16 15 16 17 19 21 22 20 18
13 15 17 17 17 18 18 17 18 19 18 19 20 19 20 20 21 21 19 19 22 23
10 11 14 14 15 16 16 16 18 18 18 18 19 18 18 18 19 20 19 23 24 22
13 14 16 18 17 17 16 17 17 17 17 18 19 17 17 18 20 18 17 18 21 24
12 15 17 18 17 17 18 18 18 19 20 19 19 18 18 16 18 19 21 20 19 19
16 17 18 19 21 21 20 20 20 21 21 20 21 20 19 17 17 17 18 20 21 20
18 18 18 18 18 19 19 19 21 23 23 23 20 19 18 16 16 16 19 17 18 20

GFSNIL_925_spd_099.txt.gz
Wind_Speed
21 19 17 17 18 20 21 21 20 16 8 3 6 9 7 8 14 24 26 25 27 29
19 20 21 21 19 21 22 20 18 19 17 14 12 11 2 5 11 16 21 30 31 30
20 22 22 22 23 23 22 20 19 19 17 16 14 12 10 9 10 6 23 29 28 29
22 22 21 23 23 22 21 21 21 19 17 17 15 14 11 10 11 13 15 14 10 19
20 20 21 21 21 20 21 21 21 20 19 18 16 15 15 14 14 12 12 14 13 13
18 19 20 20 19 20 19 19 19 20 21 20 18 16 16 16 16 15 13 13 13 15
14 15 16 16 18 18 18 18 19 18 17 15 14 15 16 16 16 16 16 16 15 15
12 12 13 14 15 15 15 15 15 16 17 18 17 15 15 16 15 16 17 16 15 15
9 11 13 14 14 15 15 16 16 17 17 17 17 17 16 16 18 17 14 14 16 17
11 12 15 17 19 18 17 18 18 17 18 18 17 14 14 14 16 18 17 15 16 17
12 12 13 15 15 16 16 16 17 17 17 19 20 19 17 16 16 17 18 17 17 16
12 13 14 16 16 17 16 18 18 18 19 20 22 21 21 20 20 20 19 19 18 18
15 17 19 19 20 19 19 20 19 20 20 21 22 21 19 17 17 18 18 19 19 18
18 17 17 18 19 19 19 21 22 23 25 24 21 21 19 16 16 16 17 17 19 20

GFSNIL_925_spd_102.txt.gz
Wind_Speed
22 13 13 18 14 13 15 16 19 19 20 21 14 4 5 11 22 24 25 26 26 23
15 16 14 17 14 16 18 19 18 21 20 19 18 16 17 15 9 13 23 25 24 25
14 15 14 13 13 16 16 17 18 18 19 18 19 18 16 15 14 11 14 12 14 27
11 14 14 15 15 15 16 18 18 18 17 16 18 18 17 16 16 15 14 14 13 15
11 12 13 13 14 15 15 16 16 17 16 17 15 16 16 15 14 13 12 14 14 14
11 11 12 13 13 13 14 15 15 16 16 15 15 14 14 13 14 14 13 13 13 12
10 11 12 12 13 13 14 14 14 13 13 14 13 13 15 15 14 13 13 13 12 11
4 5 6 9 10 12 12 13 14 15 15 15 14 13 16 15 14 14 15 14 13 12
5 7 9 11 12 12 12 12 12 12 12 13 13 16 17 17 17 16 16 15 15 15
9 9 10 12 13 12 13 13 13 12 12 13 13 14 17 16 16 16 16 16 17 17
12 13 14 14 13 13 14 13 14 14 14 15 14 16 17 17 16 15 16 15 16 16
11 12 13 13 13 13 13 15 14 14 15 15 16 16 18 17 16 16 17 17 16 16
12 13 14 15 15 15 15 16 16 17 17 17 18 19 18 17 16 17 17 17 17 15
11 12 13 14 14 14 15 16 17 17 18 18 17 17 16 17 17 18 20 21 21 18

GFSNIL_925_spd_105.txt.gz
Wind_Speed
15 15 15 20 12 18 12 16 19 19 20 24 25 28 27 27 19 12 19 16 17 20
17 18 19 17 9 9 13 14 18 20 21 22 25 24 26 27 26 23 24 18 10 18
13 14 13 10 9 11 14 17 17 19 20 22 24 24 23 24 26 27 23 21 19 17
10 10 10 9 11 12 13 14 15 18 19 20 20 21 22 23 22 22 21 21 20 19
6 6 7 9 10 12 12 13 14 14 14 14 16 16 17 17 17 16 17 16 15 13
7 8 9 10 11 12 12 13 13 14 14 15 14 13 14 14 14 15 14 16 16 17
8 9 10 10 12 13 13 14 14 14 14 14 14 12 16 16 15 15 15 15 15 14
9 10 11 12 13 13 13 13 14 14 14 14 14 11 14 15 15 16 15 15 14 14
9 11 12 14 16 17 17 17 17 18 18 19 16 18 19 19 19 18 18 16 15 14
10 12 13 14 15 15 15 15 15 15 15 15 15 15 17 17 17 18 18 18 19 18
11 13 14 15 15 15 16 16 16 16 16 16 16 15 16 17 16 16 17 16 16 16
12 14 15 15 15 16 16 17 17 17 18 19 19 18 19 17 17 16 17 17 16 16
14 15 16 17 17 16 16 17 18 19 19 19 19 18 17 16 16 17 17 17 17 16
13 15 15 17 17 18 18 19 20 20 20 20 19 18 17 17 18 19 20 21 21 19

GFSNIL_925_spd_108.txt.gz
Wind_Speed
18 20 17 12 11 14 21 19 17 19 19 18 20 19 20 21 25 29 32 30 26 17
16 16 15 15 15 17 20 15 14 13 15 16 18 21 20 18 24 24 27 26 29 24
15 14 12 12 15 14 12 13 14 15 16 17 17 17 18 24 26 24 21 22 24 22
14 14 14 16 16 14 13 15 18 20 20 19 20 20 21 19 17 15 17 18 18 18
11 12 12 13 13 14 16 16 16 17 17 19 19 18 17 19 20 21 20 19 19 17
8 9 10 12 13 15 16 16 16 17 18 18 18 17 17 19 19 18 17 18 18 18
7 9 10 11 13 14 14 15 15 15 16 16 16 14 18 21 20 19 19 19 18 16
8 9 11 12 13 14 15 16 16 17 18 18 18 13 18 18 19 19 19 18 17 18
8 10 12 15 18 19 20 20 21 22 22 23 22 20 20 21 25 27 26 24 22 19
9 12 14 15 16 17 18 18 19 19 20 21 21 20 20 21 23 26 25 26 26 26
10 13 16 17 17 18 20 20 20 22 21 22 23 20 20 20 20 21 24 23 24 25
13 15 16 17 18 19 19 20 19 20 21 23 24 22 20 19 17 20 23 24 23 22
13 15 17 19 19 20 19 21 21 23 23 21 21 20 18 18 18 17 18 20 21 23
14 15 17 17 19 20 20 20 21 20 21 19 19 20 18 18 20 20 18 18 19 20

GFSNIL_925_spd_111.txt.gz
Wind_Speed
18 18 17 18 20 19 16 14 14 14 16 16 15 17 17 18 19 17 17 18 21 20
15 15 14 14 14 14 16 17 17 16 16 16 16 16 16 18 20 22 20 16 18 18
11 11 12 14 15 14 13 13 15 15 15 16 17 17 17 18 17 18 18 16 19 20
10 9 9 10 11 12 13 14 15 16 16 17 18 18 18 19 18 18 19 20 21 19
7 9 10 12 14 15 17 17 17 18 18 18 18 18 17 20 21 20 21 20 21 20
8 10 11 13 14 15 16 16 16 16 17 17 17 18 16 20 21 22 21 21 21 20
8 9 11 12 13 15 15 15 15 15 16 16 17 14 17 21 22 23 23 23 22 21
8 9 11 12 14 15 15 15 16 18 18 18 19 15 19 20 20 23 27 28 24 21
7 8 11 14 16 16 17 18 19 20 22 23 22 21 20 20 23 22 25 26 28 26
7 11 13 14 15 16 18 20 21 22 22 23 23 20 21 20 21 22 21 26 27 27
9 11 13 14 15 17 18 19 20 21 21 21 21 20 21 21 21 17 20 25 24 25
10 12 13 15 16 16 19 19 20 20 21 21 21 19 18 18 17 17 19 22 21 21
9 11 13 14 14 17 17 17 18 19 18 17 18 18 17 17 18 20 20 17 15 17
9 11 12 14 15 15 15 16 16 17 17 16 16 18 17 18 20 20 18 17 19 21

GFSNIL_925_spd_114.txt.gz
Wind_Speed
14 14 15 13 12 14 14 16 16 16 16 15 15 14 14 13 13 14 15 16 16 13
12 13 14 14 14 14 14 14 14 15 15 15 16 16 17 16 16 15 15 14 16 15
8 9 10 11 13 14 14 14 14 15 15 15 16 15 15 17 18 17 17 16 17 18
7 8 9 10 10 12 12 13 14 14 15 15 15 15 14 16 18 19 19 18 19 19
4 5 6 8 11 13 14 14 14 14 14 15 15 15 11 17 18 19 20 21 21 20
4 7 8 10 11 13 15 15 14 14 15 16 16 15 13 18 17 18 19 20 20 18
5 6 8 9 11 12 11 10 11 11 11 13 13 11 14 15 15 17 18 20 20 18
5 5 7 9 10 11 10 10 11 12 13 14 14 13 14 15 15 14 18 18 22 21
7 7 9 11 11 11 11 11 12 13 14 15 15 12 13 14 16 16 15 17 22 22
8 9 10 11 11 11 12 14 14 15 15 16 17 15 15 15 16 15 12 17 21 21
9 9 9 9 9 10 11 13 13 14 15 15 15 14 16 16 17 16 17 18 20 20
9 9 9 9 9 10 12 13 13 14 13 14 13 13 14 14 15 17 18 19 15 17
9 9 9 9 9 10 11 11 13 12 12 10 11 13 12 14 16 16 17 14 17 18
8 7 7 7 9 9 11 11 12 12 12 11 12 13 12 13 14 15 17 17 21 22

GFSNIL_925_spd_117.txt.gz
Wind_Speed
11 12 13 12 12 13 13 14 14 15 14 14 14 12 11 10 9 7 7 7 11 12
7 8 8 7 7 9 11 12 14 15 16 15 15 14 14 13 13 11 10 9 8 9
4 5 6 5 7 7 8 8 10 11 12 13 13 13 11 12 14 14 13 13 12 11
1 2 4 5 6 8 9 10 11 11 11 11 11 11 8 11 12 13 13 14 13 11
2 2 3 4 6 8 10 10 9 10 10 11 11 10 8 12 12 13 14 16 16 15
5 4 4 4 5 8 10 10 9 10 11 12 13 11 10 12 12 11 12 14 15 15
8 6 5 5 7 9 9 8 8 9 9 11 11 10 10 12 12 11 12 11 14 15
10 8 7 6 8 8 7 7 8 8 9 10 10 9 11 11 11 11 11 10 13 16
10 8 7 7 8 7 7 7 8 8 8 9 9 7 10 10 12 11 11 10 13 14
11 9 8 8 9 9 8 8 9 8 10 9 9 8 10 11 10 9 10 12 15 16
12 10 8 9 9 9 8 9 10 9 10 11 10 9 10 11 11 12 13 15 15 14
12 10 10 10 9 9 9 9 9 10 10 11 11 11 12 13 15 16 15 15 14 15
13 11 10 10 10 9 10 10 10 10 10 11 12 11 11 12 13 15 17 18 17 20
12 10 9 9 9 10 10 10 11 11 11 11 10 11 12 12 14 15 18 16 20 22